Location: Saint-Maurice-d�Ard�che
(44.5216°N, 4.4002°E)
Time: 02:01:39
(UTC+00:00)

Cosmos 2237 Rocket - Pass Details

Date: 30 March 2020
Orbit: 833 x 851 km, 71.0° (Epoch: 05 June)

Event Time Altitude Azimuth Distance (km) Brightness Sun altitude
Rises 18:57:35 0° 220° (SW) 3,367 5.7 -9.5°
Reaches altitude 10° 19:00:06 10° 226° (SW) 2,438 5.0 -10.0°
Maximum altitude 19:05:30 49° 301° (WNW) 1,065 3.2 -10.9°
Drops below altitude 10° 19:10:58 10° 16° (NNE) 2,458 4.6 -11.8°
Sets 19:13:30 0° 22° (NNE) 3,398 5.3 -12.2°
